Weather History for Wheeler AAF, HI

Change the Weather History Date:

Saturday, November 2, 2013

  Actual Average Record
Temperature  
Mean Temperature 74 °F -  
Max Temperature 79 °F 78 °F 84 °F (1999)
Min Temperature 69 °F 66 °F 62 °F (2012)
Cooling Degree Days 9    
Growing Degree Days 24 (Base 50)    
Moisture  
Dew Point 65 °F    
Average Humidity 75    
Maximum Humidity 88    
Minimum Humidity 57    
Precipitation  
Precipitation 0.01 in - - ()
Sea Level Pressure  
Sea Level Pressure 30.06 in    
Wind  
Wind Speed 5 mph (ENE)    
Max Wind Speed 15 mph    
Max Gust Speed 22 mph    
Visibility 10 miles    
Events Rain    
Averages and records for this station are not official NWS values.
T = Trace of Precipitation, MM = Missing Value Source: NWS Daily Summary

Daily Weather History Graph

Daily Weather History Graph

Search for Another Location

Airport:

Trip Planner

Search our weather history database for the weather conditions in past years. The results will help you decide how hot, cold, wet, or windy it might be!

Date:

Astronomy

Nov. 02, 2013 Rise Set
Actual Time 6:36 AM HST 5:55 PM HST
Civil Twilight 6:13 AM HST 6:18 PM HST
Nautical Twilight 5:46 AM HST 6:44 PM HST
Astronomical Twilight 5:20 AM HST 7:10 PM HST
Moon 5:50 AM HST (11/2) 5:33 PM HST (11/2)
Length of Visible Light 12h 04m
Length of Day
11h 18m
Waning Crescent, 1% of the Moon is Illuminated
Nov 2
Waning Crescent
Nov 3
New
Nov 9
First Quarter
Nov 17
Full
Nov 25
Last Quarter

Hourly Weather History & Observations

Time (HST) Temp. Dew Point Humidity Pressure Visibility Wind Dir Wind Speed Gust Speed Precip Events Conditions
12:34 AM 71.6 °F 66.2 °F 83% 30.09 in 10.0 mi Variable 3.5 mph - N/A   Scattered Clouds
12:36 AM 71.6 °F 66.2 °F 83% 30.09 in 10.0 mi Variable 2.3 mph - N/A   Light Drizzle
12:45 AM 71.6 °F 66.2 °F 83% 30.08 in 10.0 mi Variable 3.5 mph - N/A   Scattered Clouds
12:47 AM 71.6 °F 66.2 °F 83% 30.09 in 10.0 mi North 2.3 mph - N/A   Light Drizzle
12:56 AM 71.6 °F 66.2 °F 83% 30.08 in 10.0 mi Variable 2.3 mph - N/A   Partly Cloudy
12:58 AM 71.6 °F 66.2 °F 83% 30.05 in 10.0 mi Variable 2.3 mph - 0.01 in   Partly Cloudy
1:43 AM 69.8 °F 66.2 °F 88% 30.06 in 10.0 mi WNW 5.8 mph - N/A   Mostly Cloudy
1:58 AM 70.3 °F 66.0 °F 86% 30.03 in 10.0 mi North 5.8 mph - N/A   Overcast
2:43 AM 71.6 °F 66.2 °F 83% 30.05 in 10.0 mi North 3.5 mph - N/A   Scattered Clouds
2:58 AM 72.1 °F 64.8 °F 78% 30.03 in 10.0 mi NNE 4.6 mph - N/A   Partly Cloudy
3:53 AM 73.4 °F 64.4 °F 73% 30.04 in 10.0 mi NE 5.8 mph - N/A   Mostly Cloudy
3:58 AM 72.9 °F 64.8 °F 76% 30.01 in 10.0 mi NNE 5.8 mph - N/A   Mostly Cloudy
4:08 AM 73.4 °F 64.4 °F 73% 30.04 in 10.0 mi NNE 5.8 mph - N/A   Light Drizzle
4:13 AM 73.4 °F 64.4 °F 73% 30.05 in 10.0 mi NE 5.8 mph - N/A   Light Drizzle
4:21 AM 71.6 °F 66.2 °F 83% 30.04 in 10.0 mi NE 4.6 mph - N/A   Mostly Cloudy
4:58 AM 72.7 °F 64.8 °F 76% 30.03 in 10.0 mi NNE 4.6 mph - 0.00 in   Mostly Cloudy
5:49 AM 71.6 °F 64.4 °F 78% 30.06 in 10.0 mi NE 4.6 mph - N/A   Light Drizzle
5:58 AM 72.1 °F 64.9 °F 78% 30.04 in 10.0 mi NE 5.8 mph - 0.00 in   Light Drizzle
6:00 AM 71.6 °F 64.4 °F 78% 30.06 in 10.0 mi NE 5.8 mph - N/A   Scattered Clouds
6:58 AM 70.2 °F 64.0 °F 81% 30.06 in 10.0 mi NE 5.8 mph - 0.00 in   Mostly Cloudy
7:07 AM 71.6 °F 64.4 °F 78% 30.08 in 10.0 mi Variable 4.6 mph - N/A   Drizzle
7:26 AM 71.6 °F 64.4 °F 78% 30.08 in 10.0 mi NW 4.6 mph - N/A   Scattered Clouds
7:47 AM 69.8 °F 64.4 °F 83% 30.09 in 9.0 mi East 3.5 mph - N/A Rain Light Rain
7:57 AM 71.6 °F 66.2 °F 83% 30.10 in 9.0 mi East 8.1 mph - N/A   Light Drizzle
7:58 AM 71.6 °F 66.2 °F 83% 30.08 in 9.0 mi ENE 8.1 mph - 0.00 in   Light Drizzle
8:07 AM 71.6 °F 66.2 °F 83% 30.10 in 10.0 mi East 6.9 mph - N/A   Scattered Clouds
8:10 AM 71.6 °F 66.2 °F 83% 30.10 in 10.0 mi East 5.8 mph - N/A   Light Drizzle
8:25 AM 71.6 °F 66.2 °F 83% 30.10 in 10.0 mi Variable 1.2 mph - N/A   Clear
8:33 AM 71.6 °F 66.2 °F 83% 30.11 in 10.0 mi Variable 1.2 mph - N/A   Light Drizzle
8:55 AM 73.4 °F 68.0 °F 83% 30.11 in 10.0 mi ENE 4.6 mph - N/A   Partly Cloudy
8:58 AM 73.0 °F 67.3 °F 82% 30.09 in 10.0 mi ENE 3.5 mph - 0.00 in   Clear
9:58 AM 75.9 °F 67.8 °F 76% 30.09 in 10.0 mi East 6.9 mph - N/A   Partly Cloudy
10:58 AM 77.4 °F 66.0 °F 68% 30.08 in 10.0 mi East 10.4 mph - N/A   Partly Cloudy
11:58 AM 79.2 °F 64.9 °F 62% 30.05 in 10.0 mi East 12.7 mph 19.6 mph N/A   Partly Cloudy
12:39 PM 78.8 °F 66.2 °F 65% 30.07 in 10.0 mi ENE 8.1 mph - N/A   Light Drizzle
12:42 PM 78.8 °F 66.2 °F 65% 30.07 in 10.0 mi ENE 9.2 mph - N/A   Mostly Cloudy
12:58 PM 78.3 °F 63.7 °F 61% 30.03 in 10.0 mi NE 11.5 mph - 0.00 in   Mostly Cloudy
1:58 PM 78.6 °F 62.4 °F 57% 30.01 in 10.0 mi ENE 12.7 mph 21.9 mph N/A   Scattered Clouds
2:14 PM 78.8 °F 62.6 °F 57% 30.03 in 10.0 mi NE 12.7 mph - N/A   Light Drizzle
2:23 PM 77.0 °F 64.4 °F 65% 30.03 in 10.0 mi ENE 12.7 mph 20.7 mph N/A   Mostly Cloudy
2:58 PM 77.9 °F 63.1 °F 60% 29.99 in 10.0 mi ENE 12.7 mph 21.9 mph 0.00 in   Scattered Clouds
3:58 PM 77.5 °F 63.1 °F 61% 29.98 in 10.0 mi NE 15.0 mph - N/A   Scattered Clouds
4:58 PM 76.5 °F 63.0 °F 63% 29.99 in 10.0 mi ENE 12.7 mph - N/A   Partly Cloudy
5:58 PM 74.3 °F 63.1 °F 68% 30.01 in 10.0 mi ENE 6.9 mph - N/A   Partly Cloudy
6:58 PM 73.6 °F 62.1 °F 67% 30.03 in 10.0 mi ENE 6.9 mph - N/A   Partly Cloudy
7:58 PM 73.4 °F 61.7 °F 67% 30.06 in 10.0 mi ENE 5.8 mph - N/A   Mostly Cloudy
8:58 PM 73.6 °F 63.0 °F 69% 30.06 in 10.0 mi North 3.5 mph - N/A   Scattered Clouds
9:43 PM 73.4 °F 64.4 °F 73% 30.08 in 10.0 mi Variable 5.8 mph - N/A   Drizzle
9:53 PM 73.4 °F 64.4 °F 73% 30.08 in 10.0 mi NE 3.5 mph - N/A   Mostly Cloudy
9:58 PM 73.6 °F 64.2 °F 72% 30.05 in 10.0 mi North 4.6 mph - 0.00 in   Mostly Cloudy
10:14 PM 73.4 °F 64.4 °F 73% 30.08 in 10.0 mi ENE 2.3 mph - N/A   Light Drizzle
10:24 PM 73.4 °F 64.4 °F 73% 30.08 in 10.0 mi NNE 2.3 mph - N/A   Light Drizzle
10:29 PM 73.4 °F 64.4 °F 73% 30.08 in 10.0 mi NE 1.2 mph - N/A   Light Drizzle
10:32 PM 73.4 °F 64.4 °F 73% 30.08 in 10.0 mi Calm Calm - N/A   Overcast
10:37 PM 73.4 °F 64.4 °F 73% 30.09 in 10.0 mi SE 3.5 mph - N/A   Overcast
10:47 PM 73.4 °F 64.4 °F 73% 30.09 in 10.0 mi SSE 3.5 mph - N/A   Overcast
10:52 PM 73.4 °F 64.4 °F 73% 30.09 in 10.0 mi SE 4.6 mph - N/A   Overcast
10:57 PM 73.4 °F 64.4 °F 73% 30.09 in 10.0 mi ESE 4.6 mph - N/A   Overcast
10:58 PM 73.4 °F 64.4 °F 73% 30.06 in 10.0 mi SE 4.6 mph - 0.00 in   Overcast
11:03 PM 73.4 °F 64.4 °F 73% 30.09 in 10.0 mi ESE 3.5 mph - N/A   Overcast
11:05 PM 73.4 °F 64.4 °F 73% 30.09 in 10.0 mi East 6.9 mph - N/A   Light Drizzle
11:17 PM 73.4 °F 64.4 °F 73% 30.09 in 10.0 mi Variable 2.3 mph - N/A   Mostly Cloudy
11:22 PM 73.4 °F 64.4 °F 73% 30.09 in 10.0 mi ENE 3.5 mph - N/A   Mostly Cloudy
11:26 PM 73.4 °F 64.4 °F 73% 30.09 in 10.0 mi East 4.6 mph - N/A   Light Drizzle
11:36 PM 73.4 °F 64.4 °F 73% 30.09 in 10.0 mi NE 3.5 mph - N/A   Light Drizzle
11:38 PM 73.4 °F 64.4 °F 73% 30.09 in 10.0 mi NE 3.5 mph - N/A   Scattered Clouds
11:58 PM 72.1 °F 64.4 °F 77% 30.06 in 10.0 mi Calm Calm - 0.00 in   Scattered Clouds